Location: Allonne
(49.4086°N, 2.1143°E)
Time: 09:12:41
(UTC+00:00)

CZ-4B DEB - Visible Passes

Search period start: 04 October 2023 00:00
Search period end: 14 October 2023 00:00
Orbit: 837 x 859 km, 99.0° (Epoch: 03 October)

Date Brightness Start Highest point End Pass type
(mag) Time Alt. Az. Time Alt. Az. Time Alt. Az.
04 Oct 4.1 18:19:35 10° SSE 18:25:00 73° ENE 18:30:27 10° NNW visible
04 Oct 6.7 20:02:22 10° SW 20:06:12 19° W 20:10:04 10° NW visible
05 Oct 4.3 18:07:16 10° SSE 18:12:36 59° ENE 18:17:57 10° N visible
05 Oct 6.3 19:49:15 10° SW 19:53:36 24° W 19:58:00 10° NW visible
06 Oct 4.5 17:55:03 10° SE 18:00:12 47° ENE 18:05:26 10° N visible
06 Oct 6.0 19:36:18 10° SSW 19:41:02 30° W 19:45:48 10° NW visible
07 Oct 4.7 17:42:52 10° SE 17:47:51 38° ENE 17:52:52 10° N visible
07 Oct 5.6 19:23:28 10° SSW 19:28:29 37° W 19:33:33 10° NNW visible
08 Oct 5.2 19:10:45 10° S 19:15:58 47° W 19:21:14 10° NNW visible
09 Oct 4.8 18:58:06 10° S 19:03:28 59° WSW 19:08:52 10° NNW visible
10 Oct 4.4 18:45:33 10° S 18:50:59 74° WSW 18:56:28 10° NNW visible
10 Oct 7.1 20:30:38 10° WSW 20:32:35 12° W 20:34:31 10° WNW visible
11 Oct 4.2 18:33:04 10° SSE 18:38:31 89° E 18:44:01 10° NNW visible
11 Oct 6.9 20:16:49 10° WSW 20:19:55 15° W 20:23:02 10° NW visible
12 Oct 4.1 18:20:41 10° SSE 18:26:05 73° ENE 18:31:33 10° NNW visible
12 Oct 6.6 20:03:28 10° SW 20:07:17 19° W 20:11:09 10° NW visible
13 Oct 4.2 18:08:21 10° SSE 18:13:40 59° ENE 18:19:02 10° N visible
13 Oct 6.3 19:50:21 10° SW 19:54:41 24° W 19:59:04 10° NW visible
